Miscellaneous Local Product
Issued by NWS North Platte, NE

Home | Current Version | Previous Version | Text Only | Print | Product List | Glossary On
Versions: 1 2 3 4 5 6 7 8 9 10 11 12 13 14 15 16 17 18 19 20 21 22 23 24 25 26 27 28 29 30 31 32 33 34 35 36 37 38 39 40 41 42 43 44 45 46 47 48 49 50
000
AXUS43 KLBF 302010
MISLBF


WESTERN AND NORTH CENTRAL NEBRASKA HOURLY WEATHER ROUNDUP
NATIONAL WEATHER SERVICE NORTH PLATTE NE
300 PM CDT TUE SEP 30 2014

***STATIONS NOT REPORTING VARIABLES SUCH AS SKY/WEATHER OR
PRESSURE ARE PROVIDED BY THE NEBRASKA DEPARTMENT OF
ROADS...RAWS...AND APRS NETWORKS...AND ARE NOT UNDER
NATIONAL WEATHER SERVICE QUALITY CONTROL***

...OBSERVATIONS IN AND NEAR THE EASTERN PANHANDLE OF NEBRASKA...

CITY           SKY/WX    TMP DP  RH WIND       PRES   REMARKS
PINE RIDGE     PTSUNNY   64  47  53 W32G44    29.61S
CHADRON        CLOUDY    65  48  54 W25G33    29.65S
ALLIANCE       PTSUNNY   64  47  53 NW12      29.70F
SIDNEY         SUNNY     72  37  28 W26G32    29.77F
WHITECLAY        N/A     64  46  50 W22         N/A
RUSHVILLE        N/A     62  36  37 W32         N/A
CRESCENT LAKE    N/A     70  40  33 W20G30      N/A
LISCO            N/A     75  35  24 W22         N/A
BIG SPRINGS      N/A     73  44  35 W9          N/A
$$

...OBSERVATIONS IN NORTH CENTRAL NEBRASKA...

CITY           SKY/WX    TMP DP  RH WIND       PRES   REMARKS
VALENTINE      PTSUNNY   69  45  41 SW29G45   29.61R
THEDFORD       MOSUNNY   75  44  33 W22G35    29.69F
AINSWORTH      PTSUNNY   72  43  35 SW25G33   29.64F
O`NEILL        MOSUNNY   78  49  36 S20G29    29.67F
ORD            SUNNY     78  45  30 SW17G31   29.69F
BROKEN BOW     MOSUNNY   80  41  24 W20G30    29.71F
SPRINGVIEW       N/A     73  47  39 SW20G35     N/A
ROSE             N/A     79  49  34 S23         N/A
NEWPORT          N/A     76  46  33 SW24        N/A
SARGENT          N/A     77  41  27 W14G24      N/A
COMSTOCK         N/A     83  46  27 W16         N/A
CHAMBERS         N/A     78  49  35 S12G23      N/A
EWING            N/A     79  49  34 CALM        N/A
$$

...OBSERVATIONS IN SOUTHWEST NEBRASKA AND FAR NORTHEAST COLORADO...

CITY           SKY/WX    TMP DP  RH WIND       PRES   REMARKS
WRAY           FAIR      77  33  19 S9G17     29.76F
HOLYOKE        FAIR      77  37  24 W10       29.77F
IMPERIAL       SUNNY     74  40  29 SW14G22   29.76F
OGALLALA       SUNNY     76  42  29 W18G25    29.73F
NORTH PLATTE   MOSUNNY   77  42  28 SW13      29.71F
MCCOOK         SUNNY     77  42  28 S8        29.74F
LEXINGTON      SUNNY     78  44  30 S10       29.73F
PAXTON           N/A     73  46  38 SW14        N/A
SUTHERLAND       N/A     78  32  18 W16         N/A
BRADY            N/A     75  46  35 S5          N/A
GOTHENBURG       N/A     75  42  31 SW9         N/A
CALLAWAY         N/A     76  45  32 SW25        N/A
$$

...SOME WEATHER OBSERVATIONS FROM AROUND THE REGION...

CITY           SKY/WX    TMP DP  RH WIND       PRES   REMARKS
DENVER         MOSUNNY   67  33  28 W22       29.83F
LARAMIE        CLOUDY    49  35  58 W21G32    29.89S
CHEYENNE       PTSUNNY   59  33  37 W20G30    29.83F
SCOTTSBLUFF    MOSUNNY   70  43  37 W22G30    29.72F
RAPID CITY     PTSUNNY   62  48  60 NW25G33   29.52R
PIERRE         LGT RAIN  65  51  60 S25G35    29.44S
WINNER         CLOUDY    72  45  37 SW30G41   29.55F
SIOUX FALLS    CLOUDY    65  61  87 SE15G26   29.73F
OMAHA          HVY RAIN  66  63  90 W9        29.82F FOG
GRAND ISLAND   MOSUNNY   73  62  68 SE16G25   29.74F
KANSAS CITY    MOSUNNY   82  58  43 S17       29.82F
WICHITA        PTSUNNY   87  59  38 S20       29.75F
HAYS           CLOUDY    75  61  60 S12       29.74F
LIBERAL        SUNNY     81  46  30 SW6G17    29.76F
GOODLAND       SUNNY     72  43  35 SW8       29.79F
$$



USA.gov is the U.S. government's official web portal to all federal, state and local government web resources and services.